Location: Crescent
(42.8242°N, 73.7329°W)
Time: 08:35:40
(UTC+00:00)

Vanguard 1 Rocket - Pass Details

Date: 18 February 2026
Orbit: 653 x 4214 km, 34.3° (Epoch: 12 March)

Event Time Altitude Azimuth Distance (km) Brightness Sun altitude
Rises 00:52:04 0° 281° (W) 6,856 13.2 -26.8°
Reaches altitude 10° 00:56:49 10° 272° (W) 6,267 12.6 -27.6°
Maximum altitude 01:14:36 33° 218° (SW) 5,536 11.4 -30.8°
Drops below altitude 10° 01:35:24 10° 165° (SSE) 7,188 11.6 -34.5°
Enters shadow 01:40:37 - 158° (SSE) 7,804 11.8 -35.4°
Sets 01:41:37 0° 156° (SSE) 7,927 - -35.6°
